owner,sensor,date,latitude,longitude,vertical_datum,wind_speed,wind_to_direction,wind_speed_of_gust,qcFlag 
COMPS,ioos:station:USF.COMPS:C12:1,2019-01-01T00:05:00Z,27.4980,-83.7220,3.0,6.76,149.29,7.98,'1111122,1111122,1111122' 
COMPS,ioos:station:USF.COMPS:C12:1,2019-01-01T00:35:00Z,27.4980,-83.7220,3.0,7.03,154.0,8.62,'1111122,1111122,1111122' 
COMPS,ioos:station:USF.COMPS:C12:1,2019-01-01T01:05:00Z,27.4980,-83.7220,3.0,5.85,161.3,7.25,'1111122,1111122,1111122' 
COMPS,ioos:station:USF.COMPS:C12:1,2019-01-01T01:35:00Z,27.4980,-83.7220,3.0,5.57,162.74,6.74,'1111122,1111122,1111122' 
COMPS,ioos:station:USF.COMPS:C12:1,2019-01-01T02:05:00Z,27.4980,-83.7220,3.0,5.26,164.36,6.37,'1111122,1111122,1111122' 
COMPS,ioos:station:USF.COMPS:C12:1,2019-01-01T02:35:00Z,27.4980,-83.7220,3.0,4.87,165.35,6.0,'1111122,1111122,1111122' 
COMPS,ioos:station:USF.COMPS:C12:1,2019-01-01T03:05:00Z,27.4980,-83.7220,3.0,3.95,170.03,5.04,'1111122,1111122,1111122' 
COMPS,ioos:station:USF.COMPS:C12:1,2019-01-01T03:35:00Z,27.4980,-83.7220,3.0,3.72,177.81,4.63,'1111122,1111122,1111122' 
COMPS,ioos:station:USF.COMPS:C12:1,2019-01-01T04:05:00Z,27.4980,-83.7220,3.0,4.17,177.32,5.2,'1111122,1111122,1111122' 
COMPS,ioos:station:USF.COMPS:C12:1,2019-01-01T04:35:00Z,27.4980,-83.7220,3.0,3.89,172.67,4.66,'1111122,1111122,1111122' 
COMPS,ioos:station:USF.COMPS:C12:1,2019-01-01T05:05:00Z,27.4980,-83.7220,3.0,3.54,170.45,4.47,'1111122,1111122,1111122' 
COMPS,ioos:station:USF.COMPS:C12:1,2019-01-01T05:35:00Z,27.4980,-83.7220,3.0,3.68,161.01,4.44,'1111122,1111122,1111122' 
COMPS,ioos:station:USF.COMPS:C12:1,2019-01-01T06:05:00Z,27.4980,-83.7220,3.0,3.83,153.71,4.68,'1111122,1111122,1111122' 
COMPS,ioos:station:USF.COMPS:C12:1,2019-01-01T06:35:00Z,27.4980,-83.7220,3.0,4.1,152.12,5.07,'1111122,1111122,1111122' 
COMPS,ioos:station:USF.COMPS:C12:1,2019-01-01T07:05:00Z,27.4980,-83.7220,3.0,4.45,147.27,5.62,'1111122,1111122,1111122' 
COMPS,ioos:station:USF.COMPS:C12:1,2019-01-01T07:35:00Z,27.4980,-83.7220,3.0,4.07,154.71,5.27,'1111122,1111122,1111122' 
COMPS,ioos:station:USF.COMPS:C12:1,2019-01-01T08:05:00Z,27.4980,-83.7220,3.0,3.76,154.58,4.68,'1111122,1111122,1111122' 
COMPS,ioos:station:USF.COMPS:C12:1,2019-01-01T08:35:00Z,27.4980,-83.7220,3.0,3.91,152.44,4.76,'1111122,1111122,1111122' 
COMPS,ioos:station:USF.COMPS:C12:1,2019-01-01T09:05:00Z,27.4980,-83.7220,3.0,3.82,149.01,4.8,'1111122,1111122,1111122' 
COMPS,ioos:station:USF.COMPS:C12:1,2019-01-01T09:35:00Z,27.4980,-83.7220,3.0,3.89,140.39,4.76,'1111122,1111122,1111122' 
COMPS,ioos:station:USF.COMPS:C12:1,2019-01-01T10:05:00Z,27.4980,-83.7220,3.0,3.28,131.73,4.09,'1111122,1111122,1111122' 
COMPS,ioos:station:USF.COMPS:C12:1,2019-01-01T10:35:00Z,27.4980,-83.7220,3.0,4.44,131.21,5.4,'1111122,1111122,1111122' 
COMPS,ioos:station:USF.COMPS:C12:1,2019-01-01T11:05:00Z,27.4980,-83.7220,3.0,4.3,127.38,5.2,'1111122,1111122,1111122' 
COMPS,ioos:station:USF.COMPS:C12:1,2019-01-01T11:35:00Z,27.4980,-83.7220,3.0,5.42,130.57,6.63,'1111122,1111122,1111122' 
COMPS,ioos:station:USF.COMPS:C12:1,2019-01-01T12:05:00Z,27.4980,-83.7220,3.0,5.31,127.38,6.43,'1111122,1111122,1111122' 
COMPS,ioos:station:USF.COMPS:C12:1,2019-01-01T12:35:00Z,27.4980,-83.7220,3.0,5.15,132.51,6.38,'1111122,1111122,1111122' 
COMPS,ioos:station:USF.COMPS:C12:1,2019-01-01T13:05:00Z,27.4980,-83.7220,3.0,4.95,136.48,6.19,'1111122,1111122,1111122' 
COMPS,ioos:station:USF.COMPS:C12:1,2019-01-01T13:35:00Z,27.4980,-83.7220,3.0,5.32,133.98,6.47,'1111122,1111122,1111122' 
COMPS,ioos:station:USF.COMPS:C12:1,2019-01-01T14:05:00Z,27.4980,-83.7220,3.0,5.66,131.08,7.03,'1111122,1111122,1111122' 
COMPS,ioos:station:USF.COMPS:C12:1,2019-01-01T14:35:00Z,27.4980,-83.7220,3.0,5.93,133.32,7.11,'1111122,1111122,1111122' 
COMPS,ioos:station:USF.COMPS:C12:1,2019-01-01T15:05:00Z,27.4980,-83.7220,3.0,6.13,128.99,7.45,'1111122,1111122,1111122' 
COMPS,ioos:station:USF.COMPS:C12:1,2019-01-01T15:35:00Z,27.4980,-83.7220,3.0,5.04,129.93,5.96,'1111122,1111122,1111122' 
COMPS,ioos:station:USF.COMPS:C12:1,2019-01-01T16:05:00Z,27.4980,-83.7220,3.0,4.22,138.47,5.19,'1111122,1111122,1111122' 
COMPS,ioos:station:USF.COMPS:C12:1,2019-01-01T16:35:00Z,27.4980,-83.7220,3.0,3.73,139.33,4.49,'1111122,1111122,1111122' 
COMPS,ioos:station:USF.COMPS:C12:1,2019-01-01T17:05:00Z,27.4980,-83.7220,3.0,2.88,145.24,3.61,'1111122,1111122,1111122' 
COMPS,ioos:station:USF.COMPS:C12:1,2019-01-01T17:35:00Z,27.4980,-83.7220,3.0,2.13,140.1,3.04,'1111122,1111122,1111122' 
COMPS,ioos:station:USF.COMPS:C12:1,2019-01-01T18:05:00Z,27.4980,-83.7220,3.0,2.25,158.82,3.07,'1111122,1111122,1111122' 
COMPS,ioos:station:USF.COMPS:C12:1,2019-01-01T18:35:00Z,27.4980,-83.7220,3.0,2.24,131.6,3.05,'1111122,1111122,1111122' 
COMPS,ioos:station:USF.COMPS:C12:1,2019-01-01T19:05:00Z,27.4980,-83.7220,3.0,2.75,123.6,3.53,'1111122,1111122,1111122' 
COMPS,ioos:station:USF.COMPS:C12:1,2019-01-01T19:35:00Z,27.4980,-83.7220,3.0,2.58,126.79,3.28,'1111122,1111122,1111122' 
COMPS,ioos:station:USF.COMPS:C12:1,2019-01-01T20:05:00Z,27.4980,-83.7220,3.0,1.88,133.0,2.73,'1111122,1111122,1111122' 
COMPS,ioos:station:USF.COMPS:C12:1,2019-01-01T20:35:00Z,27.4980,-83.7220,3.0,2.17,113.1,2.9,'1111122,1111122,1111122' 
COMPS,ioos:station:USF.COMPS:C12:1,2019-01-01T21:05:00Z,27.4980,-83.7220,3.0,3.2,91.09,3.87,'1111122,1111122,1111122' 
COMPS,ioos:station:USF.COMPS:C12:1,2019-01-01T21:35:00Z,27.4980,-83.7220,3.0,4.37,105.81,5.14,'1111122,1111122,1111122' 
COMPS,ioos:station:USF.COMPS:C12:1,2019-01-01T22:05:00Z,27.4980,-83.7220,3.0,4.16,108.71,5.11,'1111122,1111122,1111122' 
COMPS,ioos:station:USF.COMPS:C12:1,2019-01-01T22:35:00Z,27.4980,-83.7220,3.0,3.64,102.98,4.35,'1111122,1111122,1111122' 
COMPS,ioos:station:USF.COMPS:C12:1,2019-01-01T23:05:00Z,27.4980,-83.7220,3.0,3.45,92.41,4.34,'1111122,1111122,1111122' 
COMPS,ioos:station:USF.COMPS:C12:1,2019-01-01T23:35:00Z,27.4980,-83.7220,3.0,2.65,94.17,3.59,'1111122,1111122,1111122' 
COMPS,ioos:station:USF.COMPS:C12:1,2019-01-02T00:05:00Z,27.4980,-83.7220,3.0,1.92,106.25,2.59,'1111122,1111122,1111122' 
COMPS,ioos:station:USF.COMPS:C12:1,2019-01-02T00:35:00Z,27.4980,-83.7220,3.0,1.36,127.66,2.21,'1111122,1111122,1111122' 
COMPS,ioos:station:USF.COMPS:C12:1,2019-01-02T01:05:00Z,27.4980,-83.7220,3.0,0.94,79.64,2.65,'1111122,1111122,1111122' 
COMPS,ioos:station:USF.COMPS:C12:1,2019-01-02T01:35:00Z,27.4980,-83.7220,3.0,1.14,72.79,2.18,'1111122,1111122,1111122' 
COMPS,ioos:station:USF.COMPS:C12:1,2019-01-02T02:05:00Z,27.4980,-83.7220,3.0,1.6,118.25,2.91,'1111122,1111122,1111122' 
COMPS,ioos:station:USF.COMPS:C12:1,2019-01-02T02:35:00Z,27.4980,-83.7220,3.0,4.42,131.42,5.41,'1111122,1111122,1111122' 
COMPS,ioos:station:USF.COMPS:C12:1,2019-01-02T03:05:00Z,27.4980,-83.7220,3.0,5.02,128.74,6.21,'1111122,1111122,1111122' 
COMPS,ioos:station:USF.COMPS:C12:1,2019-01-02T03:35:00Z,27.4980,-83.7220,3.0,3.37,118.16,4.12,'1111122,1111122,1111122' 
COMPS,ioos:station:USF.COMPS:C12:1,2019-01-02T04:05:00Z,27.4980,-83.7220,3.0,5.09,119.5,6.6,'1111122,1111122,1111122' 
COMPS,ioos:station:USF.COMPS:C12:1,2019-01-02T04:35:00Z,27.4980,-83.7220,3.0,4.51,123.17,5.31,'1111122,1111122,1111122' 
COMPS,ioos:station:USF.COMPS:C12:1,2019-01-02T05:05:00Z,27.4980,-83.7220,3.0,4.12,121.17,4.91,'1111122,1111122,1111122' 
COMPS,ioos:station:USF.COMPS:C12:1,2019-01-02T05:35:00Z,27.4980,-83.7220,3.0,3.69,118.81,4.39,'1111122,1111122,1111122' 
COMPS,ioos:station:USF.COMPS:C12:1,2019-01-02T06:05:00Z,27.4980,-83.7220,3.0,3.53,107.42,4.25,'1111122,1111122,1111122' 
COMPS,ioos:station:USF.COMPS:C12:1,2019-01-02T06:35:00Z,27.4980,-83.7220,3.0,3.8,105.92,4.65,'1111122,1111122,1111122' 
COMPS,ioos:station:USF.COMPS:C12:1,2019-01-02T07:05:00Z,27.4980,-83.7220,3.0,3.92,102.13,4.78,'1111122,1111122,1111122' 
COMPS,ioos:station:USF.COMPS:C12:1,2019-01-02T07:35:00Z,27.4980,-83.7220,3.0,4.34,101.05,5.09,'1111122,1111122,1111122' 
COMPS,ioos:station:USF.COMPS:C12:1,2019-01-02T08:05:00Z,27.4980,-83.7220,3.0,3.79,94.84,4.63,'1111122,1111122,1111122' 
COMPS,ioos:station:USF.COMPS:C12:1,2019-01-02T08:35:00Z,27.4980,-83.7220,3.0,4.05,91.1,5.01,'1111122,1111122,1111122' 
COMPS,ioos:station:USF.COMPS:C12:1,2019-01-02T09:05:00Z,27.4980,-83.7220,3.0,4.37,105.41,5.36,'1111122,1111122,1111122' 
COMPS,ioos:station:USF.COMPS:C12:1,2019-01-02T09:35:00Z,27.4980,-83.7220,3.0,4.48,102.76,5.3,'1111122,1111122,1111122' 
COMPS,ioos:station:USF.COMPS:C12:1,2019-01-02T10:05:00Z,27.4980,-83.7220,3.0,3.61,93.49,4.4,'1111122,1111122,1111122' 
COMPS,ioos:station:USF.COMPS:C12:1,2019-01-02T10:35:00Z,27.4980,-83.7220,3.0,3.7,84.29,4.74,'1111122,1111122,1111122' 
COMPS,ioos:station:USF.COMPS:C12:1,2019-01-02T11:05:00Z,27.4980,-83.7220,3.0,5.0,48.29,6.15,'1111122,1111122,1111122' 
COMPS,ioos:station:USF.COMPS:C12:1,2019-01-02T11:35:00Z,27.4980,-83.7220,3.0,4.66,53.74,5.58,'1111122,1111122,1111122' 
COMPS,ioos:station:USF.COMPS:C12:1,2019-01-02T12:05:00Z,27.4980,-83.7220,3.0,4.24,52.6,5.19,'1111122,1111122,1111122' 
COMPS,ioos:station:USF.COMPS:C12:1,2019-01-02T12:35:00Z,27.4980,-83.7220,3.0,4.52,48.39,5.63,'1111122,1111122,1111122' 
COMPS,ioos:station:USF.COMPS:C12:1,2019-01-02T13:05:00Z,27.4980,-83.7220,3.0,4.86,42.77,5.86,'1111122,1111122,1111122' 
COMPS,ioos:station:USF.COMPS:C12:1,2019-01-02T13:35:00Z,27.4980,-83.7220,3.0,6.08,88.87,7.13,'1111122,1111122,1111122' 
COMPS,ioos:station:USF.COMPS:C12:1,2019-01-02T14:05:00Z,27.4980,-83.7220,3.0,4.94,75.3,6.08,'1111122,1111122,1111122' 
COMPS,ioos:station:USF.COMPS:C12:1,2019-01-02T14:35:00Z,27.4980,-83.7220,3.0,4.52,77.71,5.4,'1111122,1111122,1111122' 
COMPS,ioos:station:USF.COMPS:C12:1,2019-01-02T15:05:00Z,27.4980,-83.7220,3.0,4.47,78.8,5.42,'1111122,1111122,1111122' 
COMPS,ioos:station:USF.COMPS:C12:1,2019-01-02T15:35:00Z,27.4980,-83.7220,3.0,4.5,68.34,5.67,'1111122,1111122,1111122' 
COMPS,ioos:station:USF.COMPS:C12:1,2019-01-02T16:05:00Z,27.4980,-83.7220,3.0,4.56,81.2,5.36,'1111122,1111122,1111122' 
COMPS,ioos:station:USF.COMPS:C12:1,2019-01-02T16:35:00Z,27.4980,-83.7220,3.0,4.33,83.23,5.6,'1111122,1111122,1111122' 
COMPS,ioos:station:USF.COMPS:C12:1,2019-01-02T17:05:00Z,27.4980,-83.7220,3.0,4.72,98.21,5.71,'1111122,1111122,1111122' 
COMPS,ioos:station:USF.COMPS:C12:1,2019-01-02T17:35:00Z,27.4980,-83.7220,3.0,5.33,100.93,6.31,'1111122,1111122,1111122' 
COMPS,ioos:station:USF.COMPS:C12:1,2019-01-02T18:05:00Z,27.4980,-83.7220,3.0,4.86,97.67,6.14,'1111122,1111122,1111122' 
COMPS,ioos:station:USF.COMPS:C12:1,2019-01-02T18:35:00Z,27.4980,-83.7220,3.0,4.44,95.19,5.14,'1111122,1111122,1111122' 
COMPS,ioos:station:USF.COMPS:C12:1,2019-01-02T19:05:00Z,27.4980,-83.7220,3.0,4.2,94.72,5.29,'1111122,1111122,1111122' 
COMPS,ioos:station:USF.COMPS:C12:1,2019-01-02T19:35:00Z,27.4980,-83.7220,3.0,4.14,92.48,4.86,'1111122,1111122,1111122' 
COMPS,ioos:station:USF.COMPS:C12:1,2019-01-02T20:05:00Z,27.4980,-83.7220,3.0,3.6,80.49,4.41,'1111122,1111122,1111122' 
COMPS,ioos:station:USF.COMPS:C12:1,2019-01-02T20:35:00Z,27.4980,-83.7220,3.0,3.96,85.89,4.97,'1111122,1111122,1111122' 
COMPS,ioos:station:USF.COMPS:C12:1,2019-01-02T21:05:00Z,27.4980,-83.7220,3.0,4.06,101.93,5.28,'1111122,1111122,1111122' 
COMPS,ioos:station:USF.COMPS:C12:1,2019-01-02T21:35:00Z,27.4980,-83.7220,3.0,3.0,101.27,3.79,'1111122,1111122,1111122' 
COMPS,ioos:station:USF.COMPS:C12:1,2019-01-02T22:05:00Z,27.4980,-83.7220,3.0,3.34,111.09,4.19,'1111122,1111122,1111122' 
COMPS,ioos:station:USF.COMPS:C12:1,2019-01-02T22:35:00Z,27.4980,-83.7220,3.0,3.66,120.6,4.53,'1111122,1111122,1111122' 
COMPS,ioos:station:USF.COMPS:C12:1,2019-01-02T23:05:00Z,27.4980,-83.7220,3.0,2.18,117.76,2.98,'1111122,1111122,1111122' 
COMPS,ioos:station:USF.COMPS:C12:1,2019-01-02T23:35:00Z,27.4980,-83.7220,3.0,1.78,94.16,2.22,'1111122,1111122,1111122' 
COMPS,ioos:station:USF.COMPS:C12:1,2019-01-03T00:05:00Z,27.4980,-83.7220,3.0,2.63,101.82,3.31,'1111122,1111122,1111122' 
COMPS,ioos:station:USF.COMPS:C12:1,2019-01-03T00:35:00Z,27.4980,-83.7220,3.0,2.13,81.3,2.68,'1111122,1111122,1111122' 
COMPS,ioos:station:USF.COMPS:C12:1,2019-01-03T01:05:00Z,27.4980,-83.7220,3.0,2.25,92.14,2.98,'1111122,1111122,1111122' 
COMPS,ioos:station:USF.COMPS:C12:1,2019-01-03T01:35:00Z,27.4980,-83.7220,3.0,2.44,85.05,3.16,'1111122,1111122,1111122' 
COMPS,ioos:station:USF.COMPS:C12:1,2019-01-03T02:05:00Z,27.4980,-83.7220,3.0,1.96,109.16,3.17,'1111122,1111122,1111122' 
COMPS,ioos:station:USF.COMPS:C12:1,2019-01-03T02:35:00Z,27.4980,-83.7220,3.0,2.47,116.94,3.41,'1111122,1111122,1111122' 
COMPS,ioos:station:USF.COMPS:C12:1,2019-01-03T03:05:00Z,27.4980,-83.7220,3.0,3.31,106.5,4.12,'1111122,1111122,1111122' 
COMPS,ioos:station:USF.COMPS:C12:1,2019-01-03T03:35:00Z,27.4980,-83.7220,3.0,2.96,113.41,3.54,'1111122,1111122,1111122' 
COMPS,ioos:station:USF.COMPS:C12:1,2019-01-03T04:05:00Z,27.4980,-83.7220,3.0,4.27,126.17,5.22,'1111122,1111122,1111122' 
COMPS,ioos:station:USF.COMPS:C12:1,2019-01-03T04:35:00Z,27.4980,-83.7220,3.0,4.48,137.59,5.69,'1111122,1111122,1111122' 
COMPS,ioos:station:USF.COMPS:C12:1,2019-01-03T05:05:00Z,27.4980,-83.7220,3.0,5.45,143.75,6.51,'1111122,1111122,1111122' 
COMPS,ioos:station:USF.COMPS:C12:1,2019-01-03T05:35:00Z,27.4980,-83.7220,3.0,6.12,143.57,7.78,'1111122,1111122,1111122' 
COMPS,ioos:station:USF.COMPS:C12:1,2019-01-03T06:05:00Z,27.4980,-83.7220,3.0,6.67,144.7,8.02,'1111122,1111122,1111122' 
COMPS,ioos:station:USF.COMPS:C12:1,2019-01-03T06:35:00Z,27.4980,-83.7220,3.0,7.01,152.86,9.0,'1111122,1111122,1111122' 
COMPS,ioos:station:USF.COMPS:C12:1,2019-01-03T07:05:00Z,27.4980,-83.7220,3.0,7.16,149.39,8.67,'1111122,1111122,1111122' 
COMPS,ioos:station:USF.COMPS:C12:1,2019-01-03T07:35:00Z,27.4980,-83.7220,3.0,6.48,147.66,7.68,'1111122,1111122,1111122' 
COMPS,ioos:station:USF.COMPS:C12:1,2019-01-03T08:05:00Z,27.4980,-83.7220,3.0,6.88,148.31,8.78,'1111122,1111122,1111122' 
COMPS,ioos:station:USF.COMPS:C12:1,2019-01-03T08:35:00Z,27.4980,-83.7220,3.0,7.46,146.2,9.26,'1111122,1111122,1111122' 
COMPS,ioos:station:USF.COMPS:C12:1,2019-01-03T09:05:00Z,27.4980,-83.7220,3.0,7.99,143.73,9.84,'1111122,1111122,1111122' 
COMPS,ioos:station:USF.COMPS:C12:1,2019-01-03T09:35:00Z,27.4980,-83.7220,3.0,6.99,149.86,8.68,'1111122,1111122,1111122' 
COMPS,ioos:station:USF.COMPS:C12:1,2019-01-03T10:05:00Z,27.4980,-83.7220,3.0,6.89,149.72,8.45,'1111122,1111122,1111122' 
COMPS,ioos:station:USF.COMPS:C12:1,2019-01-03T10:35:00Z,27.4980,-83.7220,3.0,6.38,147.17,7.62,'1111122,1111122,1111122' 
COMPS,ioos:station:USF.COMPS:C12:1,2019-01-03T11:05:00Z,27.4980,-83.7220,3.0,5.05,162.44,6.2,'1111122,1111122,1111122' 
COMPS,ioos:station:USF.COMPS:C12:1,2019-01-03T11:35:00Z,27.4980,-83.7220,3.0,4.83,167.67,5.85,'1111122,1111122,1111122' 
COMPS,ioos:station:USF.COMPS:C12:1,2019-01-03T12:05:00Z,27.4980,-83.7220,3.0,3.94,173.8,5.27,'1111122,1111122,1111122' 
COMPS,ioos:station:USF.COMPS:C12:1,2019-01-03T12:35:00Z,27.4980,-83.7220,3.0,3.91,189.61,4.95,'1111122,1111122,1111122' 
COMPS,ioos:station:USF.COMPS:C12:1,2019-01-03T13:05:00Z,27.4980,-83.7220,3.0,3.0,191.1,3.93,'1111122,1111122,1111122' 
COMPS,ioos:station:USF.COMPS:C12:1,2019-01-03T13:35:00Z,27.4980,-83.7220,3.0,2.43,161.09,3.16,'1111122,1111122,1111122' 
COMPS,ioos:station:USF.COMPS:C12:1,2019-01-03T14:05:00Z,27.4980,-83.7220,3.0,2.1,134.87,2.7,'1111122,1111122,1111122' 
COMPS,ioos:station:USF.COMPS:C12:1,2019-01-03T14:35:00Z,27.4980,-83.7220,3.0,2.26,140.07,3.07,'1111122,1111122,1111122' 
COMPS,ioos:station:USF.COMPS:C12:1,2019-01-03T15:05:00Z,27.4980,-83.7220,3.0,3.48,136.49,4.22,'1111122,1111122,1111122' 
COMPS,ioos:station:USF.COMPS:C12:1,2019-01-03T15:35:00Z,27.4980,-83.7220,3.0,4.25,134.9,5.13,'1111122,1111122,1111122' 
COMPS,ioos:station:USF.COMPS:C12:1,2019-01-03T16:05:00Z,27.4980,-83.7220,3.0,3.94,132.35,4.95,'1111122,1111122,1111122' 
COMPS,ioos:station:USF.COMPS:C12:1,2019-01-03T16:35:00Z,27.4980,-83.7220,3.0,4.05,144.91,5.0,'1111122,1111122,1111122' 
COMPS,ioos:station:USF.COMPS:C12:1,2019-01-03T17:05:00Z,27.4980,-83.7220,3.0,4.14,151.06,5.78,'1111122,1111122,1111122' 
COMPS,ioos:station:USF.COMPS:C12:1,2019-01-03T17:35:00Z,27.4980,-83.7220,3.0,4.45,162.04,5.86,'1111122,1111122,1111122' 
COMPS,ioos:station:USF.COMPS:C12:1,2019-01-03T18:05:00Z,27.4980,-83.7220,3.0,4.32,164.98,5.7,'1111122,1111122,1111122' 
COMPS,ioos:station:USF.COMPS:C12:1,2019-01-03T18:35:00Z,27.4980,-83.7220,3.0,4.57,161.41,5.5,'1111122,1111122,1111122' 
COMPS,ioos:station:USF.COMPS:C12:1,2019-01-03T19:05:00Z,27.4980,-83.7220,3.0,4.87,155.84,5.9,'1111122,1111122,1111122' 
COMPS,ioos:station:USF.COMPS:C12:1,2019-01-03T19:35:00Z,27.4980,-83.7220,3.0,3.84,164.16,4.71,'1111122,1111122,1111122' 
COMPS,ioos:station:USF.COMPS:C12:1,2019-01-03T20:05:00Z,27.4980,-83.7220,3.0,4.12,175.13,5.38,'1111122,1111122,1111122' 
COMPS,ioos:station:USF.COMPS:C12:1,2019-01-03T20:35:00Z,27.4980,-83.7220,3.0,3.94,176.2,4.81,'1111122,1111122,1111122' 
COMPS,ioos:station:USF.COMPS:C12:1,2019-01-03T21:05:00Z,27.4980,-83.7220,3.0,4.34,170.07,5.84,'1111122,1111122,1111122' 
COMPS,ioos:station:USF.COMPS:C12:1,2019-01-03T21:35:00Z,27.4980,-83.7220,3.0,4.7,158.65,5.46,'1111122,1111122,1111122' 
COMPS,ioos:station:USF.COMPS:C12:1,2019-01-03T22:05:00Z,27.4980,-83.7220,3.0,4.61,154.62,5.62,'1111122,1111122,1111122' 
COMPS,ioos:station:USF.COMPS:C12:1,2019-01-03T22:35:00Z,27.4980,-83.7220,3.0,4.96,152.54,6.05,'1111122,1111122,1111122' 
COMPS,ioos:station:USF.COMPS:C12:1,2019-01-03T23:05:00Z,27.4980,-83.7220,3.0,4.26,143.06,5.3,'1111122,1111122,1111122' 
COMPS,ioos:station:USF.COMPS:C12:1,2019-01-03T23:35:00Z,27.4980,-83.7220,3.0,3.73,149.29,4.87,'1111122,1111122,1111122' 
COMPS,ioos:station:USF.COMPS:C12:1,2019-01-04T00:05:00Z,27.4980,-83.7220,3.0,3.59,144.11,4.38,'1111122,1111122,1111122' 
COMPS,ioos:station:USF.COMPS:C12:1,2019-01-04T00:35:00Z,27.4980,-83.7220,3.0,4.42,148.76,5.41,'1111122,1111122,1111122' 
COMPS,ioos:station:USF.COMPS:C12:1,2019-01-04T01:05:00Z,27.4980,-83.7220,3.0,3.41,155.46,4.22,'1111122,1111122,1111122' 
COMPS,ioos:station:USF.COMPS:C12:1,2019-01-04T01:35:00Z,27.4980,-83.7220,3.0,3.56,154.02,4.18,'1111122,1111122,1111122' 
COMPS,ioos:station:USF.COMPS:C12:1,2019-01-04T02:05:00Z,27.4980,-83.7220,3.0,4.27,154.14,5.75,'1111122,1111122,1111122' 
COMPS,ioos:station:USF.COMPS:C12:1,2019-01-04T02:35:00Z,27.4980,-83.7220,3.0,5.26,159.96,6.81,'1111122,1111122,1111122' 
COMPS,ioos:station:USF.COMPS:C12:1,2019-01-04T03:05:00Z,27.4980,-83.7220,3.0,5.88,149.65,7.55,'1111122,1111122,1111122' 
COMPS,ioos:station:USF.COMPS:C12:1,2019-01-04T03:35:00Z,27.4980,-83.7220,3.0,4.37,155.57,5.39,'1111122,1111122,1111122' 
COMPS,ioos:station:USF.COMPS:C12:1,2019-01-04T04:05:00Z,27.4980,-83.7220,3.0,4.76,166.74,5.57,'1111122,1111122,1111122' 
COMPS,ioos:station:USF.COMPS:C12:1,2019-01-04T04:35:00Z,27.4980,-83.7220,3.0,5.39,159.59,6.55,'1111122,1111122,1111122' 
COMPS,ioos:station:USF.COMPS:C12:1,2019-01-04T05:05:00Z,27.4980,-83.7220,3.0,4.82,171.16,6.07,'1111122,1111122,1111122' 
COMPS,ioos:station:USF.COMPS:C12:1,2019-01-04T05:35:00Z,27.4980,-83.7220,3.0,4.97,171.95,6.18,'1111122,1111122,1111122' 
COMPS,ioos:station:USF.COMPS:C12:1,2019-01-04T06:05:00Z,27.4980,-83.7220,3.0,4.85,177.7,5.92,'1111122,1111122,1111122' 
COMPS,ioos:station:USF.COMPS:C12:1,2019-01-04T06:35:00Z,27.4980,-83.7220,3.0,5.23,189.01,6.36,'1111122,1111122,1111122' 
COMPS,ioos:station:USF.COMPS:C12:1,2019-01-04T07:05:00Z,27.4980,-83.7220,3.0,6.58,196.21,8.33,'1111122,1111122,1111122' 
COMPS,ioos:station:USF.COMPS:C12:1,2019-01-04T07:35:00Z,27.4980,-83.7220,3.0,6.2,185.9,7.77,'1111122,1111122,1111122' 
COMPS,ioos:station:USF.COMPS:C12:1,2019-01-04T08:05:00Z,27.4980,-83.7220,3.0,5.93,177.68,7.26,'1111122,1111122,1111122' 
COMPS,ioos:station:USF.COMPS:C12:1,2019-01-04T08:35:00Z,27.4980,-83.7220,3.0,5.72,180.24,6.88,'1111122,1111122,1111122' 
COMPS,ioos:station:USF.COMPS:C12:1,2019-01-04T09:05:00Z,27.4980,-83.7220,3.0,5.44,175.9,6.63,'1111122,1111122,1111122' 
COMPS,ioos:station:USF.COMPS:C12:1,2019-01-04T09:35:00Z,27.4980,-83.7220,3.0,6.61,172.22,8.2,'1111122,1111122,1111122' 
COMPS,ioos:station:USF.COMPS:C12:1,2019-01-04T10:05:00Z,27.4980,-83.7220,3.0,7.06,172.81,8.37,'1111122,1111122,1111122' 
COMPS,ioos:station:USF.COMPS:C12:1,2019-01-04T10:35:00Z,27.4980,-83.7220,3.0,7.17,168.34,8.85,'1111122,1111122,1111122' 
COMPS,ioos:station:USF.COMPS:C12:1,2019-01-04T11:05:00Z,27.4980,-83.7220,3.0,7.61,168.74,9.36,'1111122,1111122,1111122' 
COMPS,ioos:station:USF.COMPS:C12:1,2019-01-04T11:35:00Z,27.4980,-83.7220,3.0,7.48,168.68,9.06,'1111122,1111122,1111122' 
COMPS,ioos:station:USF.COMPS:C12:1,2019-01-04T12:05:00Z,27.4980,-83.7220,3.0,7.36,166.55,9.08,'1111122,1111122,1111122' 
COMPS,ioos:station:USF.COMPS:C12:1,2019-01-04T12:35:00Z,27.4980,-83.7220,3.0,7.72,168.34,9.41,'1111122,1111122,1111122' 
COMPS,ioos:station:USF.COMPS:C12:1,2019-01-04T13:05:00Z,27.4980,-83.7220,3.0,9.65,159.58,11.76,'1111122,1111122,1111122' 
COMPS,ioos:station:USF.COMPS:C12:1,2019-01-04T13:35:00Z,27.4980,-83.7220,3.0,9.93,164.4,12.46,'1111122,1111122,1111122' 
COMPS,ioos:station:USF.COMPS:C12:1,2019-01-04T14:05:00Z,27.4980,-83.7220,3.0,7.63,173.3,9.29,'1111122,1111122,1111122' 
COMPS,ioos:station:USF.COMPS:C12:1,2019-01-04T14:35:00Z,27.4980,-83.7220,3.0,8.08,175.53,9.85,'1111122,1111122,1111122' 
COMPS,ioos:station:USF.COMPS:C12:1,2019-01-04T15:05:00Z,27.4980,-83.7220,3.0,7.47,184.48,9.3,'1111122,1111122,1111122' 
COMPS,ioos:station:USF.COMPS:C12:1,2019-01-04T15:35:00Z,27.4980,-83.7220,3.0,6.96,183.35,8.32,'1111122,1111122,1111122' 
COMPS,ioos:station:USF.COMPS:C12:1,2019-01-04T16:05:00Z,27.4980,-83.7220,3.0,7.52,179.79,9.1,'1111122,1111122,1111122' 
COMPS,ioos:station:USF.COMPS:C12:1,2019-01-04T16:35:00Z,27.4980,-83.7220,3.0,7.93,182.05,9.53,'1111122,1111122,1111122' 
COMPS,ioos:station:USF.COMPS:C12:1,2019-01-04T17:05:00Z,27.4980,-83.7220,3.0,8.4,181.89,10.21,'1111122,1111122,1111122' 
COMPS,ioos:station:USF.COMPS:C12:1,2019-01-04T17:35:00Z,27.4980,-83.7220,3.0,8.78,184.0,11.22,'1111122,1111122,1111122' 
COMPS,ioos:station:USF.COMPS:C12:1,2019-01-04T18:05:00Z,27.4980,-83.7220,3.0,8.47,185.08,10.12,'1111122,1111122,1111122' 
COMPS,ioos:station:USF.COMPS:C12:1,2019-01-04T18:35:00Z,27.4980,-83.7220,3.0,8.22,187.87,10.07,'1111122,1111122,1111122' 
COMPS,ioos:station:USF.COMPS:C12:1,2019-01-04T19:05:00Z,27.4980,-83.7220,3.0,8.98,309.14,11.27,'1111122,1111122,1111122' 
COMPS,ioos:station:USF.COMPS:C12:1,2019-01-04T19:35:00Z,27.4980,-83.7220,3.0,9.2,328.79,11.38,'1111122,1111122,1111122' 
COMPS,ioos:station:USF.COMPS:C12:1,2019-01-04T20:05:00Z,27.4980,-83.7220,3.0,10.02,310.14,12.1,'1111122,1111122,1111122' 
COMPS,ioos:station:USF.COMPS:C12:1,2019-01-04T20:35:00Z,27.4980,-83.7220,3.0,8.93,320.54,10.47,'1111122,1111122,1111122' 
COMPS,ioos:station:USF.COMPS:C12:1,2019-01-04T21:05:00Z,27.4980,-83.7220,3.0,7.73,319.94,9.98,'1111122,1111122,1111122' 
COMPS,ioos:station:USF.COMPS:C12:1,2019-01-04T21:35:00Z,27.4980,-83.7220,3.0,7.89,307.95,9.48,'1111122,1111122,1111122' 
COMPS,ioos:station:USF.COMPS:C12:1,2019-01-04T22:05:00Z,27.4980,-83.7220,3.0,7.27,283.61,9.04,'1111122,1111122,1111122' 
COMPS,ioos:station:USF.COMPS:C12:1,2019-01-04T22:35:00Z,27.4980,-83.7220,3.0,8.43,274.32,11.06,'1111122,1111122,1111122' 
COMPS,ioos:station:USF.COMPS:C12:1,2019-01-04T23:05:00Z,27.4980,-83.7220,3.0,7.08,281.35,8.99,'1111122,1111122,1111122' 
COMPS,ioos:station:USF.COMPS:C12:1,2019-01-04T23:35:00Z,27.4980,-83.7220,3.0,6.62,272.31,10.29,'1111122,1111122,1111122' 
COMPS,ioos:station:USF.COMPS:C12:1,2019-01-05T00:05:00Z,27.4980,-83.7220,3.0,6.8,270.84,9.35,'1111122,1111122,1111122' 
COMPS,ioos:station:USF.COMPS:C12:1,2019-01-05T00:35:00Z,27.4980,-83.7220,3.0,7.51,283.11,9.53,'1111122,1111122,1111122' 
COMPS,ioos:station:USF.COMPS:C12:1,2019-01-05T01:05:00Z,27.4980,-83.7220,3.0,7.53,272.54,9.78,'1111122,1111122,1111122' 
COMPS,ioos:station:USF.COMPS:C12:1,2019-01-05T01:35:00Z,27.4980,-83.7220,3.0,7.8,278.6,9.41,'1111122,1111122,1111122' 
COMPS,ioos:station:USF.COMPS:C12:1,2019-01-05T02:05:00Z,27.4980,-83.7220,3.0,8.03,279.09,9.77,'1111122,1111122,1111122' 
COMPS,ioos:station:USF.COMPS:C12:1,2019-01-05T02:35:00Z,27.4980,-83.7220,3.0,8.24,279.36,9.89,'1111122,1111122,1111122' 